| time (UTC) | temp C | wind direction | speed KPH | gust KPH | rain 1hr cm | rain 24hr cm | rain mn cm | humidity % | barometer mb |
| 20260508203653 | 21 | 188 | 4.8 | 11.3 | 0.00 | 0.00 | 0.00 | 38 | 1015.6 |
| 20260508203153 | 21 | 185 | 4.8 | 11.3 | 0.00 | 0.00 | 0.00 | 37 | 1015.6 |
| 20260508202917 | 21 | 197 | 6.4 | 9.7 | 0.00 | 0.00 | 0.00 | 37 | 1016.3 |
| 20260508202152 | 21 | 250 | 6.4 | 14.5 | 0.00 | 0.00 | 0.00 | 38 | 1016.3 |
| 20260508201647 | 20 | 201 | 4.8 | 14.5 | 0.00 | 0.00 | 0.00 | 38 | 1016.3 |
| 20260508201148 | 20 | 351 | 4.8 | 11.3 | 0.00 | 0.00 | 0.00 | 41 | 1016.7 |
| 20260508200647 | 20 | 337 | 6.4 | 11.3 | 0.00 | 0.00 | 0.00 | 36 | 1016.7 |
| 20260508200148 | 20 | 262 | 6.4 | 14.5 | 0.00 | 0.00 | 0.00 | 36 | 1016.7 |
| 20260508195647 | 20 | 201 | 4.8 | 16.1 | 0.00 | 0.00 | 0.00 | 37 | 1016.6 |
| 20260508195148 | 20 | 271 | 4.8 | 16.1 | 0.00 | 0.00 | 0.00 | 40 | 1016.6 |
| 20260508194647 | 20 | 192 | 4.8 | 11.3 | 0.00 | 0.00 | 0.00 | 40 | 1016.6 |
| 20260508194150 | 20 | 239 | 4.8 | 11.3 | 0.00 | 0.00 | 0.00 | 37 | 1016.7 |
| 20260508193648 | 20 | 301 | 4.8 | 14.5 | 0.00 | 0.00 | 0.00 | 37 | 1016.7 |
| 20260508193148 | 20 | 231 | 4.8 | 14.5 | 0.00 | 0.00 | 0.00 | 42 | 1016.7 |
| 20260508192647 | 19 | 189 | 4.8 | 11.3 | 0.00 | 0.00 | 0.00 | 43 | 1017.2 |
| 20260508192147 | 20 | 28 | 4.8 | 9.7 | 0.00 | 0.00 | 0.00 | 40 | 1017.2 |
| 20260508191645 | 19 | 293 | 4.8 | 12.9 | 0.00 | 0.00 | 0.00 | 46 | 1017.2 |
| 20260508191145 | 19 | 344 | 4.8 | 12.9 | 0.00 | 0.00 | 0.00 | 41 | 1017.5 |
| 20260508190645 | 19 | 193 | 3.2 | 12.9 | 0.00 | 0.00 | 0.00 | 43 | 1017.5 |
| 20260508190146 | 19 | 244 | 3.2 | 8.0 | 0.00 | 0.00 | 0.00 | 44 | 1017.5 |
| 20260508185645 | 19 | 303 | 3.2 | 6.4 | 0.00 | 0.00 | 0.00 | 42 | 1017.7 |
| 20260508185145 | 19 | 354 | 3.2 | 6.4 | 0.00 | 0.00 | 0.00 | 42 | 1017.7 |
| 20260508184900 | 19 | 355 | 3.2 | 8.0 | 0.00 | 0.00 | 0.00 | 44 | 1017.7 |
| 20260508184140 | 19 | 26 | 3.2 | 8.0 | 0.00 | 0.00 | 0.00 | 43 | 1017.8 |
| 20260508183640 | 19 | 193 | 3.2 | 8.0 | 0.00 | 0.00 | 0.00 | 42 | 1017.8 |
| 20260508183405 | 18 | 301 | 3.2 | 9.7 | 0.00 | 0.00 | 0.00 | 51 | 1017.8 |
| 20260508182639 | 18 | 344 | 3.2 | 9.7 | 0.00 | 0.00 | 0.00 | 45 | 1017.9 |
| 20260508182135 | 18 | 229 | 3.2 | 8.0 | 0.00 | 0.00 | 0.00 | 48 | 1017.9 |
| 20260508181617 | 18 | 293 | 3.2 | 8.0 | 0.00 | 0.00 | 0.00 | 50 | 1017.9 |
| 20260508181116 | 18 | 354 | 3.2 | 8.0 | 0.00 | 0.00 | 0.00 | 51 | 1018.0 |
| 20260508180838 | 18 | 269 | 3.2 | 8.0 | 0.00 | 0.00 | 0.00 | 54 | 1018.0 |
| 20260508180115 | 18 | 224 | 3.2 | 8.0 | 0.00 | 0.00 | 0.00 | 47 | 1018.0 |
| 20260508175842 | 17 | 359 | 4.8 | 14.5 | 0.00 | 0.00 | 0.00 | 48 | 1018.5 |
| 20260508175115 | 17 | 317 | 4.8 | 14.5 | 0.00 | 0.00 | 0.00 | 51 | 1018.5 |
| 20260508174612 | 17 | 192 | 4.8 | 9.7 | 0.00 | 0.00 | 0.00 | 50 | 1018.5 |
| 20260508174111 | 17 | 268 | 4.8 | 9.7 | 0.00 | 0.00 | 0.00 | 48 | 1018.8 |
| 20260508174102 | 17 | 293 | 3.2 | 9.7 | 0.00 | 0.00 | 0.00 | 53 | 1018.8 |
| 20260508173323 | 17 | 199 | 3.2 | 8.0 | 0.00 | 0.00 | 0.00 | 55 | 1018.8 |
| 20260508172603 | 17 | 344 | 4.8 | 8.0 | 0.00 | 0.00 | 0.00 | 49 | 1019.1 |
| 20260508172102 | 16 | 158 | 4.8 | 9.7 | 0.00 | 0.00 | 0.00 | 49 | 1019.1 |
| 20260508171603 | 16 | 137 | 3.2 | 9.7 | 0.00 | 0.00 | 0.00 | 51 | 1019.1 |
| 20260508171102 | 16 | 218 | 3.2 | 9.7 | 0.00 | 0.00 | 0.00 | 52 | 1019.4 |
| 20260508170600 | 16 | 1 | 3.2 | 9.7 | 0.00 | 0.00 | 0.00 | 56 | 1019.4 |
| 20260508170057 | 16 | 182 | 3.2 | 8.0 | 0.00 | 0.00 | 0.00 | 57 | 1019.4 |
| 20260508165824 | 16 | 335 | 4.8 | 9.7 | 0.00 | 0.00 | 0.00 | 55 | 1019.6 |
| 20260508165055 | 16 | 349 | 4.8 | 9.7 | 0.00 | 0.00 | 0.00 | 53 | 1019.6 |
| 20260508164553 | 16 | 295 | 4.8 | 9.7 | 0.00 | 0.00 | 0.00 | 56 | 1019.6 |
| 20260508164315 | 15 | 190 | 4.8 | 8.0 | 0.00 | 0.00 | 0.00 | 57 | 1020.0 |
| 20260508163553 | 15 | 233 | 3.2 | 9.7 | 0.00 | 0.00 | 0.00 | 57 | 1020.0 |
| 20260508163053 | 15 | 198 | 3.2 | 9.7 | 0.00 | 0.00 | 0.00 | 62 | 1020.0 |
| 20260508162552 | 15 | 173 | 3.2 | 9.7 | 0.00 | 0.00 | 0.00 | 60 | 1020.3 |
| 20260508162051 | 15 | 355 | 3.2 | 8.0 | 0.00 | 0.00 | 0.00 | 62 | 1020.3 |
| 20260508161553 | 14 | 172 | 3.2 | 6.4 | 0.00 | 0.00 | 0.00 | 64 | 1020.3 |
| 20260508161043 | 14 | 172 | 3.2 | 6.4 | 0.00 | 0.00 | 0.00 | 68 | 1020.5 |
| 20260508160543 | 13 | 167 | 3.2 | 8.0 | 0.00 | 0.00 | 0.00 | 66 | 1020.5 |
| 20260508160042 | 13 | 0 | 3.2 | 8.0 | 0.00 | 0.00 | 0.00 | 64 | 1020.5 |
| 20260508155540 | 13 | 0 | 3.2 | 8.0 | 0.00 | 0.00 | 0.00 | 67 | 1020.6 |
| 20260508155040 | 13 | 4 | 3.2 | 8.0 | 0.00 | 0.00 | 0.00 | 69 | 1020.6 |
| 20260508154540 | 12 | 0 | 3.2 | 6.4 | 0.00 | 0.00 | 0.00 | 63 | 1020.6 |
| 20260508154038 | 12 | 250 | 3.2 | 6.4 | 0.00 | 0.00 | 0.00 | 67 | 1020.9 |
| 20260508153750 | 12 | 198 | 3.2 | 6.4 | 0.00 | 0.00 | 0.00 | 72 | 1020.9 |
| 20260508153033 | 11 | 200 | 3.2 | 6.4 | 0.00 | 0.00 | 0.00 | 79 | 1020.9 |
| 20260508152530 | 11 | 180 | 3.2 | 6.4 | 0.00 | 0.00 | 0.00 | 85 | 1020.9 |
| 20260508152249 | 11 | 257 | 3.2 | 6.4 | 0.00 | 0.00 | 0.00 | 89 | 1020.9 |
| 20260508151525 | 11 | 265 | 1.6 | 6.4 | 0.00 | 0.00 | 0.00 | 94 | 1020.9 |
| 20260508151025 | 10 | 243 | 1.6 | 6.4 | 0.00 | 0.00 | 0.00 | 98 | 1021.1 |
| 20260508150524 | 10 | 226 | 3.2 | 6.4 | 0.00 | 0.00 | 0.00 | 99 | 1021.1 |
| 20260508150024 | 10 | 281 | 3.2 | 8.0 | 0.00 | 0.00 | 0.00 | 99 | 1021.1 |
| 20260508145523 | 10 | 347 | 1.6 | 8.0 | 0.00 | 0.00 | 0.00 | 99 | 1021.1 |
| 20260508145012 | 9 | 7 | 1.6 | 6.4 | 0.00 | 0.00 | 0.00 | 99 | 1021.1 |
| 20260508144512 | 9 | 7 | 1.6 | 8.0 | 0.00 | 0.00 | 0.00 | 99 | 1021.1 |
| 20260508144003 | 9 | 11 | 1.6 | 8.0 | 0.00 | 0.00 | 0.00 | 99 | 1021.1 |
| 20260508143506 | 9 | 16 | 3.2 | 6.4 | 0.00 | 0.00 | 0.00 | 99 | 1021.1 |
| 20260508142957 | 8 | 16 | 3.2 | 8.0 | 0.00 | 0.00 | 0.00 | 99 | 1021.1 |
| 20260508142455 | 8 | 16 | 3.2 | 9.7 | 0.00 | 0.00 | 0.00 | 99 | 1021.1 |
| 20260508141950 | 8 | 6 | 3.2 | 9.7 | 0.00 | 0.03 | 0.00 | 99 | 1021.1 |
| 20260508141448 | 8 | 0 | 3.2 | 8.0 | 0.00 | 0.03 | 0.00 | 99 | 1021.1 |
| 20260508140929 | 8 | 0 | 3.2 | 8.0 | 0.00 | 0.03 | 0.00 | 99 | 1021.0 |
| 20260508140652 | 8 | 2 | 0.0 | 6.4 | 0.00 | 0.03 | 0.00 | 99 | 1021.0 |
| 20260508140146 | 8 | 2 | 0.0 | 3.2 | 0.00 | 0.03 | 0.00 | 99 | 1021.0 |
| 20260508135422 | 8 | 1 | 0.0 | 3.2 | 0.00 | 0.03 | 0.00 | 99 | 1021.0 |
| 20260508134922 | 8 | 2 | 0.0 | 3.2 | 0.00 | 0.03 | 0.00 | 99 | 1021.0 |
| 20260508134419 | 7 | 2 | 0.0 | 3.2 | 0.00 | 0.03 | 0.00 | 99 | 1021.0 |
| 20260508133921 | 7 | 2 | 0.0 | 3.2 | 0.00 | 0.03 | 0.00 | 99 | 1021.0 |
| 20260508133857 | 7 | 2 | 3.2 | 6.4 | 0.00 | 0.03 | 0.00 | 99 | 1021.0 |
| 20260508132915 | 7 | 1 | 3.2 | 8.0 | 0.00 | 0.03 | 0.00 | 99 | 1021.0 |
| 20260508132419 | 7 | 3 | 1.6 | 8.0 | 0.00 | 0.03 | 0.00 | 99 | 1020.9 |
| 20260508131912 | 7 | 5 | 1.6 | 4.8 | 0.00 | 0.03 | 0.00 | 99 | 1020.9 |
| 20260508131420 | 7 | 85 | 0.0 | 4.8 | 0.00 | 0.03 | 0.00 | 99 | 1020.9 |
| 20260508130857 | 7 | 1 | 0.0 | 4.8 | 0.00 | 0.03 | 0.00 | 99 | 1020.9 |
| 20260508130337 | 6 | 2 | 3.2 | 9.7 | 0.00 | 0.03 | 0.00 | 99 | 1020.9 |
| 20260508130054 | 6 | 1 | 0.0 | 9.7 | 0.00 | 0.03 | 0.00 | 99 | 1020.9 |
| 20260508125331 | 6 | 11 | 0.0 | 3.2 | 0.00 | 0.03 | 0.00 | 99 | 1020.7 |
| 20260508124826 | 6 | 11 | 0.0 | 1.6 | 0.00 | 0.03 | 0.00 | 99 | 1020.7 |
| 20260508124325 | 6 | 11 | 0.0 | 1.6 | 0.00 | 0.03 | 0.00 | 99 | 1020.7 |
| 20260508123817 | 6 | 11 | 0.0 | 3.2 | 0.00 | 0.03 | 0.00 | 99 | 1020.6 |
| 20260508123251 | 6 | 10 | 0.0 | 3.2 | 0.00 | 0.03 | 0.00 | 99 | 1020.6 |
| 20260508122742 | 6 | 11 | 0.0 | 6.4 | 0.00 | 0.03 | 0.00 | 99 | 1020.6 |
| 20260508122234 | 6 | 11 | 0.0 | 6.4 | 0.00 | 0.03 | 0.00 | 99 | 1020.4 |
| 20260508121735 | 6 | 10 | 0.0 | 4.8 | 0.00 | 0.05 | 0.00 | 99 | 1020.4 |
| 20260508121455 | 6 | 10 | 0.0 | 4.8 | 0.00 | 0.05 | 0.00 | 99 | 1020.4 |
| 20260508120735 | 6 | 10 | 0.0 | 4.8 | 0.00 | 0.05 | 0.00 | 99 | 1020.3 |
| 20260508120232 | 5 | 10 | 0.0 | 3.2 | 0.00 | 0.05 | 0.00 | 99 | 1020.3 |
| 20260508115733 | 5 | 10 | 0.0 | 6.4 | 0.00 | 0.05 | 0.00 | 99 | 1020.3 |
| 20260508115455 | 5 | 10 | 0.0 | 6.4 | 0.00 | 0.05 | 0.00 | 99 | 1020.2 |
| 20260508114729 | 5 | 11 | 0.0 | 3.2 | 0.00 | 0.05 | 0.00 | 99 | 1020.2 |
| 20260508114501 | 5 | 10 | 0.0 | 3.2 | 0.00 | 0.05 | 0.00 | 99 | 1020.2 |
| 20260508113950 | 5 | 10 | 0.0 | 3.2 | 0.00 | 0.05 | 0.00 | 99 | 1019.9 |
| 20260508113225 | 5 | 10 | 0.0 | 0.0 | 0.00 | 0.05 | 0.00 | 99 | 1019.9 |
| 20260508112724 | 5 | 11 | 0.0 | 0.0 | 0.00 | 0.05 | 0.00 | 99 | 1019.9 |
| 20260508112223 | 5 | 10 | 0.0 | 3.2 | 0.00 | 0.05 | 0.00 | 99 | 1019.7 |
| 20260508111721 | 4 | 10 | 0.0 | 3.2 | 0.00 | 0.05 | 0.00 | 99 | 1019.7 |
| 20260508111219 | 4 | 11 | 0.0 | 3.2 | 0.00 | 0.05 | 0.00 | 99 | 1019.7 |
| 20260508110715 | 4 | 10 | 0.0 | 3.2 | 0.00 | 0.05 | 0.00 | 99 | 1019.5 |
| 20260508110214 | 4 | 10 | 0.0 | 0.0 | 0.00 | 0.05 | 0.00 | 99 | 1019.5 |
| 20260508105147 | 5 | 11 | 0.0 | 0.0 | 0.00 | 0.05 | 0.00 | 99 | 1019.2 |
| 20260508104644 | 5 | 11 | 1.6 | 0.0 | 0.00 | 0.05 | 0.00 | 99 | 1019.2 |
| 20260508104144 | 5 | 11 | 1.6 | 4.8 | 0.00 | 0.05 | 0.00 | 99 | 1019.1 |
| 20260508103647 | 5 | 11 | 3.2 | 8.0 | 0.00 | 0.05 | 0.00 | 99 | 1019.1 |
| 20260508103140 | 5 | 10 | 3.2 | 8.0 | 0.00 | 0.05 | 0.00 | 99 | 1019.1 |
| 20260508102640 | 5 | 10 | 1.6 | 8.0 | 0.00 | 0.05 | 0.00 | 99 | 1019.1 |
| 20260508102140 | 5 | 1 | 1.6 | 4.8 | 0.00 | 0.05 | 0.00 | 99 | 1019.1 |
| 20260508101632 | 5 | 1 | 1.6 | 4.8 | 0.00 | 0.05 | 0.00 | 99 | 1019.1 |
| 20260508101127 | 5 | 1 | 1.6 | 4.8 | 0.00 | 0.05 | 0.00 | 99 | 1018.9 |
| 20260508100834 | 5 | 1 | 0.0 | 6.4 | 0.00 | 0.05 | 0.00 | 99 | 1018.9 |
| 20260508100110 | 5 | 1 | 0.0 | 6.4 | 0.00 | 0.05 | 0.00 | 99 | 1018.9 |
| 20260508095602 | 5 | 1 | 0.0 | 3.2 | 0.00 | 0.05 | 0.00 | 99 | 1019.0 |
| 20260508095044 | 5 | 1 | 0.0 | 3.2 | 0.00 | 0.05 | 0.00 | 99 | 1019.0 |
| 20260508094540 | 5 | 1 | 0.0 | 0.0 | 0.00 | 0.05 | 0.00 | 99 | 1019.0 |
| 20260508094039 | 5 | 1 | 0.0 | 0.0 | 0.00 | 0.05 | 0.00 | 99 | 1018.9 |
| 20260508093532 | 6 | 1 | 0.0 | 0.0 | 0.00 | 0.10 | 0.00 | 99 | 1018.9 |
| 20260508093028 | 6 | 1 | 0.0 | 1.6 | 0.00 | 0.10 | 0.00 | 99 | 1018.9 |
| 20260508092511 | 6 | 1 | 3.2 | 3.2 | 0.00 | 0.10 | 0.00 | 99 | 1018.9 |
| 20260508092002 | 6 | 1 | 3.2 | 4.8 | 0.00 | 0.10 | 0.00 | 99 | 1018.9 |
| 20260508091444 | 5 | 1 | 3.2 | 4.8 | 0.00 | 0.10 | 0.00 | 99 | 1018.9 |
| 20260508091425 | 5 | 1 | 3.2 | 4.8 | 0.00 | 0.10 | 0.00 | 99 | 1018.9 |
| 20260508090439 | 6 | 1 | 1.6 | 4.8 | 0.00 | 0.10 | 0.00 | 99 | 1018.9 |
| 20260508085938 | 6 | 1 | 1.6 | 4.8 | 0.00 | 0.10 | 0.00 | 99 | 1018.9 |
| 20260508085438 | 6 | 1 | 1.6 | 6.4 | 0.00 | 0.10 | 0.00 | 99 | 1018.8 |
| 20260508084930 | 6 | 201 | 1.6 | 6.4 | 0.00 | 0.10 | 0.00 | 99 | 1018.8 |
| 20260508084427 | 6 | 200 | 0.0 | 0.0 | 0.00 | 0.10 | 0.00 | 98 | 1018.8 |
| 20260508083914 | 6 | 201 | 0.0 | 0.0 | 0.00 | 0.10 | 0.00 | 98 | 1018.6 |
| 20260508083408 | 6 | 201 | 0.0 | 0.0 | 0.00 | 0.10 | 0.00 | 98 | 1018.6 |
| 20260508082859 | 6 | 201 | 0.0 | 0.0 | 0.00 | 0.10 | 0.00 | 98 | 1018.6 |
| 20260508082348 | 6 | 201 | 0.0 | 0.0 | 0.00 | 0.10 | 0.00 | 98 | 1018.6 |
| 20260508082101 | 6 | 200 | 0.0 | 0.0 | 0.00 | 0.10 | 0.00 | 98 | 1018.6 |
| 20260508081337 | 6 | 201 | 0.0 | 0.0 | 0.00 | 0.10 | 0.00 | 98 | 1018.6 |
| 20260508081101 | 6 | 201 | 0.0 | 0.0 | 0.00 | 0.10 | 0.00 | 98 | 1018.6 |
| 20260508080309 | 6 | 201 | 0.0 | 0.0 | 0.00 | 0.10 | 0.00 | 98 | 1018.6 |
| 20260508075801 | 6 | 201 | 0.0 | 0.0 | 0.00 | 0.10 | 0.00 | 98 | 1018.6 |
| 20260508075241 | 6 | 201 | 0.0 | 0.0 | 0.00 | 0.13 | 0.00 | 97 | 1018.6 |
| 20260508075003 | 6 | 201 | 0.0 | 3.2 | 0.00 | 0.13 | 0.00 | 97 | 1018.6 |
| 20260508074224 | 7 | 201 | 0.0 | 3.2 | 0.00 | 0.13 | 0.00 | 98 | 1018.6 |
| 20260508073706 | 7 | 201 | 0.0 | 3.2 | 0.00 | 0.13 | 0.00 | 98 | 1018.7 |
| 20260508073202 | 7 | 201 | 0.0 | 3.2 | 0.00 | 0.13 | 0.00 | 97 | 1018.7 |
| 20260508072916 | 7 | 201 | 0.0 | 0.0 | 0.00 | 0.13 | 0.00 | 98 | 1018.5 |
| 20260508072145 | 7 | 200 | 0.0 | 1.6 | 0.00 | 0.13 | 0.00 | 98 | 1018.5 |
| 20260508071637 | 7 | 201 | 0.0 | 1.6 | 0.00 | 0.15 | 0.00 | 98 | 1018.5 |
| 20260508071124 | 7 | 201 | 0.0 | 1.6 | 0.00 | 0.15 | 0.00 | 98 | 1018.6 |
| 20260508070616 | 7 | 201 | 0.0 | 1.6 | 0.00 | 0.15 | 0.00 | 97 | 1018.6 |
| 20260508070104 | 7 | 201 | 0.0 | 1.6 | 0.00 | 0.15 | 0.00 | 97 | 1018.6 |
| 20260508065539 | 7 | 201 | 0.0 | 0.0 | 0.00 | 0.15 | 0.00 | 97 | 1018.7 |
| 20260508065024 | 7 | 201 | 0.0 | 3.2 | 0.00 | 0.15 | 0.00 | 97 | 1018.7 |
| 20260508064527 | 7 | 201 | 1.6 | 3.2 | 0.00 | 0.15 | 0.00 | 97 | 1018.7 |
| 20260508063956 | 8 | 201 | 1.6 | 3.2 | 0.00 | 0.15 | 0.00 | 98 | 1018.6 |
| 20260508063459 | 8 | 201 | 1.6 | 3.2 | 0.00 | 0.15 | 0.00 | 98 | 1018.6 |
| 20260508062943 | 8 | 201 | 1.6 | 4.8 | 0.00 | 0.15 | 0.00 | 97 | 1018.6 |
| 20260508062439 | 8 | 201 | 0.0 | 4.8 | 0.00 | 0.15 | 0.00 | 97 | 1018.7 |
| 20260508062200 | 8 | 201 | 0.0 | 3.2 | 0.00 | 0.15 | 0.00 | 97 | 1018.7 |
| 20260508061436 | 8 | 201 | 0.0 | 0.0 | 0.00 | 0.15 | 0.00 | 95 | 1018.7 |
| 20260508060937 | 8 | 201 | 0.0 | 0.0 | 0.00 | 0.15 | 0.00 | 96 | 1018.7 |
| 20260508060406 | 8 | 200 | 0.0 | 3.2 | 0.00 | 0.15 | 0.00 | 96 | 1018.7 |
| 20260508055829 | 8 | 201 | 0.0 | 0.0 | 0.00 | 0.18 | 0.00 | 96 | 1018.7 |
| 20260508055248 | 8 | 201 | 0.0 | 3.2 | 0.00 | 0.18 | 0.00 | 96 | 1018.7 |
| 20260508054730 | 8 | 201 | 1.6 | 3.2 | 0.00 | 0.18 | 0.00 | 96 | 1018.7 |
| 20260508054209 | 8 | 201 | 1.6 | 3.2 | 0.00 | 0.18 | 0.00 | 96 | 1018.7 |
| 20260508053656 | 9 | 201 | 1.6 | 4.8 | 0.00 | 0.18 | 0.00 | 98 | 1018.8 |
| 20260508053154 | 9 | 201 | 1.6 | 4.8 | 0.00 | 0.18 | 0.00 | 99 | 1018.8 |
| 20260508052652 | 9 | 201 | 0.0 | 3.2 | 0.00 | 0.18 | 0.00 | 99 | 1018.8 |
| 20260508052631 | 8 | 201 | 0.0 | 0.0 | 0.00 | 0.18 | 0.00 | 98 | 1018.8 |
| 20260508051624 | 8 | 201 | 0.0 | 0.0 | 0.00 | 0.18 | 0.00 | 97 | 1018.8 |
| 20260508051113 | 9 | 201 | 0.0 | 0.0 | 0.00 | 0.18 | 0.00 | 97 | 1018.6 |
| 20260508050611 | 9 | 200 | 0.0 | 0.0 | 0.00 | 0.18 | 0.00 | 96 | 1018.6 |
| 20260508050037 | 9 | 201 | 0.0 | 0.0 | 0.00 | 0.18 | 0.00 | 97 | 1018.6 |
| 20260508045534 | 9 | 201 | 0.0 | 0.0 | 0.00 | 0.18 | 0.00 | 97 | 1018.3 |
| 20260508045009 | 10 | 201 | 0.0 | 0.0 | 0.00 | 0.18 | 0.00 | 97 | 1018.3 |
| 20260508044446 | 10 | 201 | 1.6 | 4.8 | 0.00 | 0.18 | 0.00 | 97 | 1018.3 |
| 20260508043856 | 10 | 201 | 1.6 | 4.8 | 0.00 | 0.18 | 0.00 | 97 | 1018.2 |
| 20260508043346 | 10 | 201 | 0.0 | 3.2 | 0.00 | 0.18 | 0.00 | 98 | 1018.2 |
| 20260508042842 | 10 | 201 | 1.6 | 3.2 | 0.00 | 0.18 | 0.00 | 98 | 1018.2 |
| 20260508042336 | 10 | 201 | 1.6 | 3.2 | 0.00 | 0.20 | 0.00 | 98 | 1018.1 |
| 20260508041837 | 10 | 201 | 0.0 | 3.2 | 0.00 | 0.20 | 0.00 | 99 | 1018.1 |
| 20260508041333 | 10 | 201 | 0.0 | 3.2 | 0.00 | 0.20 | 0.00 | 98 | 1018.1 |
| 20260508041055 | 10 | 201 | 0.0 | 1.6 | 0.00 | 0.20 | 0.00 | 98 | 1018.1 |
| 20260508040306 | 10 | 201 | 0.0 | 3.2 | 0.00 | 0.20 | 0.00 | 98 | 1018.1 |
| 20260508035753 | 10 | 201 | 0.0 | 3.2 | 0.00 | 0.20 | 0.20 | 98 | 1018.1 |
| 20260508035254 | 10 | 201 | 0.0 | 3.2 | 0.00 | 0.20 | 0.20 | 98 | 1017.9 |
| 20260508034753 | 10 | 201 | 0.0 | 3.2 | 0.00 | 0.20 | 0.20 | 98 | 1017.9 |
| 20260508034242 | 10 | 201 | 0.0 | 3.2 | 0.00 | 0.20 | 0.20 | 97 | 1017.9 |
| 20260508033737 | 10 | 201 | 0.0 | 0.0 | 0.00 | 0.20 | 0.20 | 97 | 1018.0 |
| 20260508033222 | 10 | 201 | 0.0 | 3.2 | 0.00 | 0.20 | 0.20 | 96 | 1018.0 |
| 20260508032719 | 11 | 201 | 0.0 | 3.2 | 0.00 | 0.20 | 0.20 | 96 | 1018.0 |
| 20260508032218 | 11 | 201 | 0.0 | 3.2 | 0.00 | 0.20 | 0.20 | 96 | 1018.0 |
| 20260508031713 | 11 | 201 | 0.0 | 3.2 | 0.00 | 0.20 | 0.20 | 96 | 1018.0 |
| 20260508031158 | 11 | 201 | 0.0 | 3.2 | 0.00 | 0.20 | 0.20 | 96 | 1018.0 |
| 20260508031139 | 11 | 201 | 0.0 | 3.2 | 0.00 | 0.20 | 0.20 | 96 | 1017.8 |
| 20260508030139 | 11 | 201 | 0.0 | 1.6 | 0.00 | 0.20 | 0.20 | 95 | 1017.8 |
| 20260508025637 | 11 | 201 | 0.0 | 0.0 | 0.00 | 0.20 | 0.20 | 95 | 1017.5 |
| 20260508025136 | 11 | 201 | 0.0 | 0.0 | 0.00 | 0.20 | 0.20 | 95 | 1017.5 |
| 20260508024636 | 11 | 200 | 0.0 | 0.0 | 0.00 | 0.20 | 0.20 | 95 | 1017.5 |
| 20260508024120 | 11 | 201 | 0.0 | 0.0 | 0.00 | 0.20 | 0.20 | 95 | 1017.4 |
| 20260508023615 | 11 | 201 | 0.0 | 0.0 | 0.00 | 0.20 | 0.20 | 95 | 1017.4 |
| 20260508023056 | 11 | 200 | 0.0 | 0.0 | 0.00 | 0.20 | 0.20 | 95 | 1017.4 |
| 20260508022557 | 11 | 201 | 1.6 | 0.0 | 0.00 | 0.20 | 0.20 | 95 | 1017.3 |
| 20260508022048 | 11 | 201 | 1.6 | 6.4 | 0.00 | 0.20 | 0.20 | 95 | 1017.3 |
| 20260508021540 | 11 | 201 | 0.0 | 6.4 | 0.00 | 0.20 | 0.20 | 95 | 1017.3 |
| 20260508021027 | 11 | 201 | 0.0 | 3.2 | 0.00 | 0.20 | 0.20 | 95 | 1017.1 |
| 20260508020735 | 12 | 201 | 3.2 | 3.2 | 0.00 | 0.20 | 0.20 | 94 | 1017.1 |
| 20260508020009 | 12 | 201 | 0.0 | 0.0 | 0.00 | 0.23 | 0.20 | 94 | 1017.1 |
| 20260508015510 | 12 | 201 | 0.0 | 0.0 | 0.00 | 0.23 | 0.20 | 94 | 1016.8 |
| 20260508014945 | 12 | 201 | 0.0 | 3.2 | 0.00 | 0.28 | 0.20 | 94 | 1016.8 |
| 20260508014442 | 12 | 201 | 0.0 | 3.2 | 0.00 | 0.28 | 0.20 | 94 | 1016.8 |
| 20260508013911 | 12 | 201 | 0.0 | 3.2 | 0.00 | 0.28 | 0.20 | 93 | 1016.5 |
| 20260508013413 | 12 | 201 | 0.0 | 0.0 | 0.00 | 0.28 | 0.20 | 93 | 1016.5 |
| 20260508012908 | 12 | 201 | 0.0 | 3.2 | 0.00 | 0.28 | 0.20 | 92 | 1016.5 |
| 20260508012622 | 12 | 201 | 0.0 | 3.2 | 0.00 | 0.28 | 0.20 | 91 | 1016.2 |
| 20260508012123 | 12 | 201 | 0.0 | 3.2 | 0.00 | 0.30 | 0.20 | 91 | 1016.2 |
| 20260508011346 | 12 | 201 | 0.0 | 3.2 | 0.00 | 0.30 | 0.20 | 90 | 1016.2 |
| 20260508011102 | 12 | 201 | 0.0 | 3.2 | 0.00 | 0.30 | 0.20 | 89 | 1016.1 |
| 20260508010340 | 12 | 201 | 0.0 | 3.2 | 0.00 | 0.30 | 0.20 | 88 | 1016.1 |
| 20260508010057 | 13 | 201 | 0.0 | 3.2 | 0.00 | 0.38 | 0.20 | 87 | 1016.1 |
| 20260508005320 | 13 | 201 | 0.0 | 3.2 | 0.00 | 0.46 | 0.20 | 86 | 1015.9 |
| 20260508004812 | 13 | 201 | 0.0 | 3.2 | 0.00 | 0.46 | 0.20 | 85 | 1015.9 |
| 20260508004514 | 13 | 201 | 0.0 | 3.2 | 0.00 | 0.46 | 0.20 | 84 | 1015.9 |
| 20260508003751 | 14 | 201 | 0.0 | 1.6 | 0.00 | 0.48 | 0.20 | 82 | 1015.6 |
| 20260508003233 | 14 | 201 | 0.0 | 0.0 | 0.00 | 0.48 | 0.20 | 81 | 1015.6 |
| 20260508002710 | 15 | 201 | 0.0 | 3.2 | 0.00 | 0.48 | 0.20 | 80 | 1015.6 |
| 20260508002203 | 15 | 201 | 0.0 | 3.2 | 0.00 | 0.53 | 0.20 | 79 | 1015.6 |
| 20260508001700 | 15 | 201 | 0.0 | 3.2 | 0.00 | 0.53 | 0.20 | 78 | 1015.6 |
| 20260508001152 | 15 | 201 | 0.0 | 3.2 | 0.00 | 0.61 | 0.20 | 77 | 1015.6 |
| 20260508000651 | 15 | 201 | 0.0 | 3.2 | 0.00 | 0.66 | 0.20 | 77 | 1015.5 |
| 20260508000137 | 15 | 201 | 0.0 | 1.6 | 0.00 | 0.74 | 0.20 | 76 | 1015.5 |
| 20260507235850 | 16 | 200 | 0.0 | 3.2 | 0.00 | 0.79 | 0.20 | 76 | 1015.7 |
| 20260507235116 | 15 | 200 | 0.0 | 3.2 | 0.00 | 0.79 | 0.20 | 76 | 1015.7 |
| 20260507234604 | 15 | 200 | 0.0 | 3.2 | 0.00 | 0.79 | 0.20 | 77 | 1015.7 |
| 20260507234057 | 15 | 199 | 0.0 | 3.2 | 0.00 | 0.84 | 0.20 | 78 | 1015.6 |
| 20260507233555 | 15 | 199 | 1.6 | 3.2 | 0.00 | 0.84 | 0.20 | 77 | 1015.6 |
| 20260507233037 | 15 | 200 | 1.6 | 4.8 | 0.00 | 0.84 | 0.20 | 75 | 1015.6 |
| 20260507232533 | 16 | 200 | 3.2 | 6.4 | 0.00 | 0.84 | 0.20 | 73 | 1015.7 |
| 20260507232028 | 16 | 200 | 3.2 | 8.0 | 0.00 | 0.84 | 0.20 | 72 | 1015.7 |
| 20260507231745 | 16 | 199 | 3.2 | 8.0 | 0.00 | 0.84 | 0.20 | 70 | 1015.7 |
| 20260507231029 | 16 | 207 | 3.2 | 6.4 | 0.00 | 0.84 | 0.20 | 72 | 1015.8 |
| 20260507230759 | 16 | 206 | 0.0 | 6.4 | 0.00 | 0.84 | 0.20 | 74 | 1015.8 |
| 20260507230027 | 16 | 208 | 0.0 | 3.2 | 0.00 | 0.84 | 0.20 | 74 | 1015.8 |
| 20260507225706 | 15 | 208 | 0.0 | 3.2 | 0.00 | 0.84 | 0.20 | 75 | 1015.8 |
| 20260507224947 | 15 | 208 | 0.0 | 3.2 | 0.00 | 0.84 | 0.20 | 75 | 1015.8 |
| 20260507224444 | 15 | 208 | 0.0 | 0.0 | 0.00 | 0.84 | 0.20 | 75 | 1015.8 |
| 20260507223941 | 15 | 208 | 0.0 | 3.2 | 0.00 | 0.84 | 0.20 | 73 | 1015.6 |
| 20260507223440 | 16 | 209 | 3.2 | 4.8 | 0.00 | 0.84 | 0.20 | 72 | 1015.6 |
| 20260507223409 | 16 | 208 | 3.2 | 4.8 | 0.00 | 0.84 | 0.20 | 72 | 1015.6 |
| 20260507222430 | 16 | 208 | 3.2 | 6.4 | 0.00 | 0.84 | 0.20 | 71 | 1015.5 |
| 20260507221924 | 16 | 208 | 3.2 | 9.7 | 0.00 | 0.84 | 0.20 | 70 | 1015.5 |
| 20260507221417 | 16 | 264 | 3.2 | 9.7 | 0.00 | 0.84 | 0.20 | 69 | 1015.5 |
| 20260507220910 | 16 | 265 | 3.2 | 9.7 | 0.00 | 0.84 | 0.20 | 72 | 1015.4 |
| 20260507220410 | 16 | 170 | 4.8 | 9.7 | 0.00 | 0.84 | 0.20 | 71 | 1015.4 |
| 20260507215908 | 16 | 184 | 4.8 | 9.7 | 0.00 | 0.84 | 0.20 | 72 | 1015.4 |
| 20260507215638 | 16 | 218 | 3.2 | 9.7 | 0.00 | 0.84 | 0.20 | 74 | 1015.3 |
| 20260507214907 | 16 | 186 | 3.2 | 8.0 | 0.00 | 0.84 | 0.20 | 72 | 1015.3 |
| 20260507214405 | 16 | 186 | 3.2 | 8.0 | 0.00 | 0.84 | 0.20 | 71 | 1015.3 |
| 20260507213904 | 16 | 179 | 3.2 | 9.7 | 0.00 | 0.84 | 0.20 | 74 | 1015.1 |
| 20260507213403 | 15 | 179 | 0.0 | 9.7 | 0.00 | 0.84 | 0.20 | 75 | 1015.1 |
| 20260507212856 | 15 | 350 | 0.0 | 3.2 | 0.00 | 0.84 | 0.20 | 74 | 1015.1 |
| 20260507212354 | 15 | 350 | 1.6 | 1.6 | 0.00 | 0.84 | 0.20 | 74 | 1015.3 |
| 20260507211846 | 15 | 350 | 3.2 | 4.8 | 0.00 | 0.84 | 0.20 | 73 | 1015.3 |
| 20260507211345 | 15 | 350 | 3.2 | 4.8 | 0.00 | 0.84 | 0.20 | 72 | 1015.3 |
| 20260507211106 | 15 | 278 | 3.2 | 6.4 | 0.00 | 0.84 | 0.20 | 71 | 1015.2 |
| 20260507210349 | 15 | 277 | 3.2 | 6.4 | 0.00 | 0.84 | 0.20 | 70 | 1015.2 |
| 20260507205844 | 16 | 337 | 3.2 | 6.4 | 0.00 | 0.84 | 0.20 | 72 | 1015.2 |
| 20260507205341 | 16 | 255 | 3.2 | 8.0 | 0.00 | 0.84 | 0.20 | 69 | 1015.2 |
| 20260507204833 | 15 | 177 | 3.2 | 8.0 | 0.00 | 0.84 | 0.20 | 75 | 1015.2 |
| 20260507204551 | 15 | 188 | 3.2 | 6.4 | 0.00 | 0.84 | 0.20 | 77 | 1015.2 |